Location: Igri�s
(42.2144°N, 0.4320°W)
Time: 14:26:36
(UTC+00:00)

Meteor 1-13 Rocket - Pass Details

Date: 13 August 2020
Orbit: 830 x 913 km, 81.3° (Epoch: 24 September)

Event Time Altitude Azimuth Distance (km) Brightness Sun altitude
Rises 22:06:37 0° 350° (N) 3,386 8.4 -27.1°
Reaches altitude 10° 22:09:02 10° 351° (N) 2,446 7.4 -27.4°
Enters shadow 22:14:25 83° 37° (NE) 842 4.1 -27.9°
